Location: Downe
(51.3167°N, 0.0500°E)
Time: 13:02:46
(UTC+00:00)

FALCON 9 DEB - Visible Passes

Search period start: 18 February 2020 00:00
Search period end: 28 February 2020 00:00
Orbit: 429 x 444 km, 53.0° (Epoch: 18 February)

Date Brightness Start Highest point End Pass type
(mag) Time Alt. Az. Time Alt. Az. Time Alt. Az.
18 Feb 3.1 18:53:42 10° WNW 18:57:09 74° N 18:58:18 39° E visible
18 Feb 6.2 20:30:51 10° W 20:31:37 15° W 20:31:37 15° W visible
19 Feb 3.2 18:11:49 10° WNW 18:15:15 67° N 18:18:11 14° E visible
19 Feb 4.3 19:48:56 10° WNW 19:51:31 41° WSW 19:51:31 41° WSW visible
20 Feb 3.3 19:07:03 10° WNW 19:10:29 67° SSW 19:11:27 42° SE visible
20 Feb 6.6 20:44:46 10° W 20:44:47 10° W 20:44:47 10° W visible
21 Feb 3.1 18:25:10 10° WNW 18:28:38 82° SSW 18:31:26 15° ESE visible
21 Feb 5.3 20:02:35 10° W 20:04:46 22° SW 20:04:46 22° SW visible
22 Feb 4.7 19:20:32 10° W 19:23:36 30° SW 19:24:51 23° S visible
23 Feb 4.3 18:38:34 10° W 18:41:49 39° SSW 18:45:02 10° SE visible
24 Feb 3.9 17:56:38 10° WNW 17:59:59 52° SSW 18:03:21 10° SE visible
24 Feb 6.0 19:34:58 10° WSW 19:36:27 12° SW 19:37:54 10° SSW visible
25 Feb 5.8 18:52:27 10° W 18:54:44 17° SW 18:57:01 10° S visible
26 Feb 5.5 18:10:14 10° W 18:13:00 22° SW 18:15:45 10° SSE visible
